FLOCK 4Q 9

导读 | 星芒AI

FLOCK 4Q 9 是由 Planet Labs 运营的 Dove 系列小型地球观测卫星之一,属于 Flock 4Q 群组。该卫星主要用于高分辨率光学成像,支持每日对全球范围进行重访,广泛应用于环境监测、农业分析、灾害评估等领域。卫星采用标准化设计,具备高效能与低成本优势,是商业遥感领域的重要组成部分。

基本信息
目录编号:
58322
目录名称:
FLOCK 4Q 9
国际标识:
2023-174BU
轨道中心:
EARTH
卫星名称:
FLOCK 4Q 9
卫星全名:
--
卫星状态:
在轨 (已飞行757 天)
发射日期:
2023-11-11 UTC
国别 :
美国 (US)
星等 :
--
轨道信息
数据来源 国际轨道数据
星历时间: 2025-12-07T02:46:37+0800
22小时前
查看轨道信息
半长轴: 6824.475km
偏心率: 0.0008798
轨道倾角: 97.404°
近地点辐角 117.634°
升交点赤经 60.908°
平近点角 242.580°
近地点: 440.335km
远地点: 452.345km
周期: 93.511分钟
每日圈数: 15.399228
详细信息
使用方式:
暂无
2D轨道图
3D轨道图
轨道高度分析图
轨道倾角分析图
轨道综合分析图
查看轨道综合分析图